30.06.2024;16:00;10
30.06.2024;15:00;10
30.06.2024;14:00;9
30.06.2024;13:00;10
30.06.2024;12:00;10
30.06.2024;11:00;12
30.06.2024;10:00;18
30.06.2024;09:00;18
30.06.2024;08:00;11
30.06.2024;07:00;10
30.06.2024;06:00;4
30.06.2024;05:00;4
30.06.2024;04:00;5
30.06.2024;03:00;10
30.06.2024;02:00;14
30.06.2024;01:00;23
30.06.2024;00:00;38
29.06.2024;23:00;26
29.06.2024;22:00;24
29.06.2024;21:00;28
29.06.2024;20:00;29
29.06.2024;19:00;31
29.06.2024;18:00;31
29.06.2024;17:00;28
29.06.2024;16:00;29
29.06.2024;15:00;32
29.06.2024;14:00;33
29.06.2024;13:00;27
29.06.2024;12:00;30
29.06.2024;11:00;26
29.06.2024;10:00;32
29.06.2024;09:00;34
29.06.2024;08:00;26
29.06.2024;07:00;26
29.06.2024;06:00;24
29.06.2024;05:00;24
29.06.2024;04:00;28
29.06.2024;03:00;27
29.06.2024;02:00;38
29.06.2024;01:00;41
29.06.2024;00:00;41
28.06.2024;23:00;41
28.06.2024;22:00;32
28.06.2024;21:00;27
28.06.2024;20:00;14
28.06.2024;19:00;16
28.06.2024;18:00;13
28.06.2024;17:00;11
